Time,TemperatureF,DewpointF,PressureIn,WindDirection,WindDirectionDegrees,WindSpeedMPH,WindSpeedGustMPH,Humidity,HourlyPrecipIn,Conditions,Clouds,dailyrainin,SoftwareType,DateUTC
2013-11-08 00:03:00,56.5,42.3,30.02,North,355,6.0,7.0,59,0.00,,,0.00,Wunderground v.1.15,2013-11-08 05:03:00,
2013-11-08 00:14:00,56.0,41.9,30.02,NE,49,7.0,10.0,59,0.00,,,0.00,Wunderground v.1.15,2013-11-08 05:14:00,
2013-11-08 00:18:00,55.8,41.7,30.02,NNE,15,7.0,10.0,59,0.00,,,0.00,Wunderground v.1.15,2013-11-08 05:18:00,
2013-11-08 00:29:00,55.2,41.5,30.03,North,5,5.0,5.0,60,0.00,,,0.00,Wunderground v.1.15,2013-11-08 05:29:00,
2013-11-08 00:39:00,54.6,41.0,30.03,North,355,5.0,5.0,60,0.00,,,0.00,Wunderground v.1.15,2013-11-08 05:39:00,
2013-11-08 00:54:00,54.0,39.5,30.04,NNE,15,6.0,6.0,58,0.00,,,0.00,Wunderground v.1.15,2013-11-08 05:54:00,
2013-11-08 01:09:00,53.2,38.8,30.05,NNE,12,5.0,5.0,58,0.00,,,0.00,Wunderground v.1.15,2013-11-08 06:09:00,
2013-11-08 01:19:00,52.8,38.9,30.05,NW,322,5.0,8.0,59,0.00,,,0.00,Wunderground v.1.15,2013-11-08 06:19:00,
2013-11-08 01:34:00,52.3,38.4,30.06,NNE,13,5.0,7.0,59,0.00,,,0.00,Wunderground v.1.15,2013-11-08 06:34:00,
2013-11-08 01:49:00,51.7,38.3,30.06,NNW,346,6.0,6.0,60,0.00,,,0.00,Wunderground v.1.15,2013-11-08 06:49:00,
2013-11-08 01:59:00,51.3,38.3,30.07,North,355,6.0,6.0,61,0.00,,,0.00,Wunderground v.1.15,2013-11-08 06:59:00,
2013-11-08 02:14:00,50.6,38.5,30.07,North,11,4.0,5.0,63,0.00,,,0.00,Wunderground v.1.15,2013-11-08 07:14:00,
2013-11-08 02:29:00,50.0,38.3,30.08,NNE,16,5.0,5.0,64,0.00,,,0.00,Wunderground v.1.15,2013-11-08 07:29:00,
2013-11-08 02:39:00,49.7,38.0,30.09,NNW,343,4.0,7.0,64,0.00,,,0.00,Wunderground v.1.15,2013-11-08 07:39:00,
2013-11-08 02:54:00,49.2,37.9,30.10,North,5,4.0,4.0,65,0.00,,,0.00,Wunderground v.1.15,2013-11-08 07:54:00,
2013-11-08 03:03:00,49.0,38.1,30.10,North,360,4.0,5.0,66,0.00,,,0.00,Wunderground v.1.15,2013-11-08 08:03:00,
2013-11-08 03:14:00,48.6,38.1,30.10,NNE,15,4.0,4.0,67,0.00,,,0.00,Wunderground v.1.15,2013-11-08 08:14:00,
2013-11-08 03:24:00,48.2,38.1,30.10,NE,40,4.0,8.0,68,0.00,,,0.00,Wunderground v.1.15,2013-11-08 08:24:00,
2013-11-08 03:39:00,48.0,37.9,30.11,NNE,26,5.0,5.0,68,0.00,,,0.00,Wunderground v.1.15,2013-11-08 08:39:00,
2013-11-08 03:54:00,47.8,37.7,30.11,North,5,5.0,6.0,68,0.00,,,0.00,Wunderground v.1.15,2013-11-08 08:54:00,
2013-11-08 04:04:00,47.6,37.6,30.12,North,5,6.0,6.0,68,0.00,,,0.00,Wunderground v.1.15,2013-11-08 09:04:00,
2013-11-08 04:19:00,47.4,37.0,30.12,NNE,22,6.0,6.0,67,0.00,,,0.00,Wunderground v.1.15,2013-11-08 09:19:00,
2013-11-08 04:34:00,47.2,36.8,30.13,NNE,32,6.0,9.0,67,0.00,,,0.00,Wunderground v.1.15,2013-11-08 09:34:00,
2013-11-08 04:49:00,47.1,36.7,30.14,NNE,15,7.0,7.0,67,0.00,,,0.00,Wunderground v.1.15,2013-11-08 09:49:00,
2013-11-08 04:59:00,46.9,36.5,30.14,NNE,29,6.0,6.0,67,0.00,,,0.00,Wunderground v.1.15,2013-11-08 09:59:00,
2013-11-08 05:08:00,46.8,36.4,30.15,NE,35,6.0,7.0,67,0.00,,,0.00,Wunderground v.1.15,2013-11-08 10:08:00,
2013-11-08 05:19:00,46.8,36.0,30.15,North,11,7.0,7.0,66,0.00,,,0.00,Wunderground v.1.15,2013-11-08 10:19:00,
2013-11-08 05:29:00,46.6,35.8,30.15,NNE,21,7.0,7.0,66,0.00,,,0.00,Wunderground v.1.15,2013-11-08 10:29:00,
2013-11-08 05:44:00,46.5,35.7,30.16,NNE,24,7.0,10.0,66,0.00,,,0.00,Wunderground v.1.15,2013-11-08 10:44:00,
2013-11-08 05:59:00,46.4,35.3,30.16,NNE,17,8.0,12.0,65,0.00,,,0.00,Wunderground v.1.15,2013-11-08 10:59:00,
2013-11-08 06:09:00,46.4,35.3,30.17,NNE,19,8.0,8.0,65,0.00,,,0.00,Wunderground v.1.15,2013-11-08 11:09:00,
2013-11-08 06:24:00,46.2,35.1,30.18,NNE,26,7.0,9.0,65,0.00,,,0.00,Wunderground v.1.15,2013-11-08 11:24:00,
2013-11-08 06:39:00,46.2,34.3,30.18,NNE,13,8.0,10.0,63,0.00,,,0.00,Wunderground v.1.15,2013-11-08 11:39:00,
2013-11-08 06:54:00,46.1,33.8,30.19,North,360,8.0,8.0,62,0.00,,,0.00,Wunderground v.1.15,2013-11-08 11:54:00,
2013-11-08 07:04:00,46.0,33.7,30.19,NNE,29,6.0,6.0,62,0.00,,,0.00,Wunderground v.1.15,2013-11-08 12:04:00,
2013-11-08 07:19:00,46.2,33.5,30.20,ENE,62,8.0,9.0,61,0.00,,,0.00,Wunderground v.1.15,2013-11-08 12:19:00,
2013-11-08 07:34:00,46.5,33.4,30.20,NNE,31,7.0,7.0,60,0.00,,,0.00,Wunderground v.1.15,2013-11-08 12:34:00,
2013-11-08 07:49:00,46.9,33.3,30.21,NNE,19,8.0,11.0,59,0.00,,,0.00,Wunderground v.1.15,2013-11-08 12:49:00,
2013-11-08 07:59:00,47.4,33.4,30.22,North,349,7.0,9.0,58,0.00,,,0.00,Wunderground v.1.15,2013-11-08 12:59:00,
2013-11-08 08:14:00,48.0,33.5,30.22,NNE,15,7.0,7.0,57,0.00,,,0.00,Wunderground v.1.15,2013-11-08 13:14:00,
2013-11-08 08:29:00,48.5,33.1,30.23,NNE,19,8.0,8.0,55,0.00,,,0.00,Wunderground v.1.15,2013-11-08 13:29:00,
2013-11-08 08:44:00,49.1,32.7,30.24,NE,35,9.0,9.0,53,0.00,,,0.00,Wunderground v.1.15,2013-11-08 13:44:00,
2013-11-08 08:54:00,49.6,32.7,30.24,NNE,32,8.0,8.0,52,0.00,,,0.00,Wunderground v.1.15,2013-11-08 13:54:00,
2013-11-08 09:09:00,50.2,31.8,30.24,NE,34,8.0,8.0,49,0.00,,,0.00,Wunderground v.1.15,2013-11-08 14:09:00,
2013-11-08 09:24:00,51.3,32.8,30.24,NNE,22,8.0,8.0,49,0.00,,,0.00,Wunderground v.1.15,2013-11-08 14:24:00,
2013-11-08 09:39:00,51.2,32.2,30.24,NNW,348,9.0,9.0,48,0.00,,,0.00,Wunderground v.1.15,2013-11-08 14:39:00,
2013-11-08 09:49:00,52.0,32.9,30.24,NE,49,9.0,12.0,48,0.00,,,0.00,Wunderground v.1.15,2013-11-08 14:49:00,
2013-11-08 10:04:00,52.6,31.8,30.24,NE,38,9.0,12.0,45,0.00,,,0.00,Wunderground v.1.15,2013-11-08 15:04:00,
2013-11-08 10:19:00,52.6,31.3,30.24,NNE,24,9.0,9.0,44,0.00,,,0.00,Wunderground v.1.15,2013-11-08 15:19:00,
2013-11-08 10:34:00,53.5,32.1,30.24,NE,40,7.0,7.0,44,0.00,,,0.00,Wunderground v.1.15,2013-11-08 15:34:00,
2013-11-08 10:44:00,53.6,30.4,30.24,NNE,22,8.0,9.0,41,0.00,,,0.00,Wunderground v.1.15,2013-11-08 15:44:00,
2013-11-08 10:59:00,54.1,30.9,30.25,NE,52,9.0,9.0,41,0.00,,,0.00,Wunderground v.1.15,2013-11-08 15:59:00,
2013-11-08 11:14:00,54.3,30.5,30.24,North,350,8.0,10.0,40,0.00,,,0.00,Wunderground v.1.15,2013-11-08 16:14:00,
2013-11-08 11:29:00,55.0,32.3,30.24,NNE,25,7.0,7.0,42,0.00,,,0.00,Wunderground v.1.15,2013-11-08 16:29:00,
2013-11-08 11:44:00,55.8,33.6,30.23,NE,44,5.0,9.0,43,0.00,,,0.00,Wunderground v.1.15,2013-11-08 16:44:00,
2013-11-08 11:59:00,55.6,31.6,30.22,NNE,24,6.0,6.0,40,0.00,,,0.00,Wunderground v.1.15,2013-11-08 16:59:00,
2013-11-08 12:14:00,55.8,31.2,30.21,North,360,6.0,6.0,39,0.00,,,0.00,Wunderground v.1.15,2013-11-08 17:14:00,
2013-11-08 12:29:00,56.1,31.5,30.20,NNE,14,6.0,6.0,39,0.00,,,0.00,Wunderground v.1.15,2013-11-08 17:29:00,
2013-11-08 12:44:00,56.3,31.6,30.20,NNW,342,5.0,5.0,39,0.00,,,0.00,Wunderground v.1.15,2013-11-08 17:44:00,
2013-11-08 12:59:00,56.6,31.9,30.19,North,355,6.0,6.0,39,0.00,,,0.00,Wunderground v.1.15,2013-11-08 17:59:00,
2013-11-08 13:09:00,56.9,30.9,30.19,NNE,15,5.0,5.0,37,0.00,,,0.00,Wunderground v.1.15,2013-11-08 18:09:00,
2013-11-08 13:24:00,57.1,33.0,30.18,North,355,4.0,4.0,40,0.00,,,0.00,Wunderground v.1.15,2013-11-08 18:24:00,
2013-11-08 13:39:00,57.4,31.3,30.18,ENE,57,5.0,5.0,37,0.00,,,0.00,Wunderground v.1.15,2013-11-08 18:39:00,
2013-11-08 13:54:00,57.7,31.6,30.18,NNE,30,5.0,10.0,37,0.00,,,0.00,Wunderground v.1.15,2013-11-08 18:54:00,
2013-11-08 14:04:00,57.8,31.7,30.18,North,5,5.0,5.0,37,0.00,,,0.00,Wunderground v.1.15,2013-11-08 19:04:00,
2013-11-08 14:13:00,57.9,33.1,30.18,NNE,16,4.0,5.0,39,0.00,,,0.00,Wunderground v.1.15,2013-11-08 19:13:00,
2013-11-08 14:19:00,57.9,31.1,30.18,NE,54,4.0,4.0,36,0.00,,,0.00,Wunderground v.1.15,2013-11-08 19:19:00,
2013-11-08 14:28:00,58.1,31.9,30.18,NNW,330,3.0,4.0,37,0.00,,,0.00,Wunderground v.1.15,2013-11-08 19:28:00,
2013-11-08 14:39:00,58.1,33.2,30.18,NNE,13,3.0,3.0,39,0.00,,,0.00,Wunderground v.1.15,2013-11-08 19:39:00,
2013-11-08 14:49:00,58.4,32.9,30.18,NE,34,2.0,2.0,38,0.00,,,0.00,Wunderground v.1.15,2013-11-08 19:49:00,
2013-11-08 15:04:00,58.4,32.9,30.18,NW,321,3.0,3.0,38,0.00,,,0.00,Wunderground v.1.15,2013-11-08 20:04:00,
2013-11-08 15:19:00,58.3,32.8,30.18,NNE,27,5.0,5.0,38,0.00,,,0.00,Wunderground v.1.15,2013-11-08 20:19:00,
2013-11-08 15:34:00,58.6,33.0,30.18,NE,43,3.0,3.0,38,0.00,,,0.00,Wunderground v.1.15,2013-11-08 20:34:00,
2013-11-08 15:44:00,58.5,33.0,30.18,NNE,31,3.0,4.0,38,0.00,,,0.00,Wunderground v.1.15,2013-11-08 20:44:00,
2013-11-08 15:59:00,58.6,34.3,30.18,NNE,26,2.0,2.0,40,0.00,,,0.00,Wunderground v.1.15,2013-11-08 20:59:00,
2013-11-08 16:14:00,58.5,33.0,30.19,NNE,16,1.0,3.0,38,0.00,,,0.00,Wunderground v.1.15,2013-11-08 21:14:00,
2013-11-08 16:24:00,58.3,33.4,30.19,NNW,331,2.0,2.0,39,0.00,,,0.00,Wunderground v.1.15,2013-11-08 21:24:00,
2013-11-08 16:39:00,58.1,33.9,30.20,NNE,33,2.0,2.0,40,0.00,,,0.00,Wunderground v.1.15,2013-11-08 21:39:00,
2013-11-08 16:54:00,57.6,34.1,30.19,NNE,33,0.0,0.0,41,0.00,,,0.00,Wunderground v.1.15,2013-11-08 21:54:00,
2013-11-08 17:09:00,56.4,35.3,30.20,NNE,33,0.0,0.0,45,0.00,,,0.00,Wunderground v.1.15,2013-11-08 22:09:00,
2013-11-08 17:24:00,54.2,37.9,30.20,NNE,33,0.0,1.0,54,0.00,,,0.00,Wunderground v.1.15,2013-11-08 22:24:00,
2013-11-08 17:34:00,52.7,40.0,30.21,NNE,33,1.0,1.0,62,0.00,,,0.00,Wunderground v.1.15,2013-11-08 22:34:00,
2013-11-08 17:49:00,51.4,40.0,30.21,NNE,33,0.0,0.0,65,0.00,,,0.00,Wunderground v.1.15,2013-11-08 22:49:00,
2013-11-08 18:04:00,49.8,40.4,30.21,NNE,33,0.0,0.0,70,0.00,,,0.00,Wunderground v.1.15,2013-11-08 23:04:00,
2013-11-08 18:19:00,48.6,41.4,30.22,NNE,33,0.0,0.0,76,0.00,,,0.00,Wunderground v.1.15,2013-11-08 23:19:00,
2013-11-08 18:29:00,49.2,41.3,30.22,NNE,33,0.0,0.0,74,0.00,,,0.00,Wunderground v.1.15,2013-11-08 23:29:00,
2013-11-08 18:44:00,48.3,41.4,30.23,NNE,33,0.0,0.0,77,0.00,,,0.00,Wunderground v.1.15,2013-11-08 23:44:00,
2013-11-08 18:59:00,47.6,41.7,30.23,NNE,33,0.0,0.0,80,0.00,,,0.00,Wunderground v.1.15,2013-11-08 23:59:00,
2013-11-08 19:09:00,46.9,41.7,30.23,NNE,33,0.0,0.0,82,0.00,,,0.00,Wunderground v.1.15,2013-11-09 00:09:00,
2013-11-08 19:24:00,46.0,40.2,30.24,NNE,33,0.0,0.0,80,0.00,,,0.00,Wunderground v.1.15,2013-11-09 00:24:00,
2013-11-08 19:39:00,45.9,40.1,30.24,NNE,33,0.0,0.0,80,0.00,,,0.00,Wunderground v.1.15,2013-11-09 00:39:00,
2013-11-08 19:54:00,46.0,40.5,30.24,NNE,33,0.0,0.0,81,0.00,,,0.00,Wunderground v.1.15,2013-11-09 00:54:00,
2013-11-08 20:04:00,45.6,40.7,30.24,NNE,33,0.0,0.0,83,0.00,,,0.00,Wunderground v.1.15,2013-11-09 01:04:00,
2013-11-08 20:19:00,44.5,40.0,30.24,NNE,33,0.0,0.0,84,0.00,,,0.00,Wunderground v.1.15,2013-11-09 01:19:00,
2013-11-08 20:34:00,45.0,40.5,30.25,NNE,33,0.0,0.0,84,0.00,,,0.00,Wunderground v.1.15,2013-11-09 01:34:00,
2013-11-08 20:49:00,45.1,39.6,30.25,NNE,33,0.0,0.0,81,0.00,,,0.00,Wunderground v.1.15,2013-11-09 01:49:00,
2013-11-08 20:59:00,44.7,39.5,30.25,NNE,33,0.0,0.0,82,0.00,,,0.00,Wunderground v.1.15,2013-11-09 01:59:00,
2013-11-08 21:08:00,44.3,39.5,30.26,NNE,33,0.0,0.0,83,0.00,,,0.00,Wunderground v.1.15,2013-11-09 02:08:00,
2013-11-08 21:19:00,44.3,39.5,30.26,NNE,33,0.0,0.0,83,0.00,,,0.00,Wunderground v.1.15,2013-11-09 02:19:00,
2013-11-08 21:29:00,43.9,39.1,30.26,NNE,33,0.0,0.0,83,0.00,,,0.00,Wunderground v.1.15,2013-11-09 02:29:00,
2013-11-08 21:44:00,43.4,38.9,30.27,NNE,33,0.0,0.0,84,0.00,,,0.00,Wunderground v.1.15,2013-11-09 02:44:00,
2013-11-08 21:59:00,42.5,38.6,30.27,NNE,33,0.0,0.0,86,0.00,,,0.00,Wunderground v.1.15,2013-11-09 02:59:00,
2013-11-08 22:14:00,42.2,38.6,30.27,NNE,33,0.0,1.0,87,0.00,,,0.00,Wunderground v.1.15,2013-11-09 03:14:00,
2013-11-08 22:24:00,42.7,38.2,30.27,NNE,33,2.0,2.0,84,0.00,,,0.00,Wunderground v.1.15,2013-11-09 03:24:00,
2013-11-08 22:39:00,43.0,37.9,30.26,NNE,33,1.0,1.0,82,0.00,,,0.00,Wunderground v.1.15,2013-11-09 03:39:00,
2013-11-08 22:54:00,43.4,37.3,30.26,NNE,33,0.0,0.0,79,0.00,,,0.00,Wunderground v.1.15,2013-11-09 03:54:00,
2013-11-08 23:09:00,43.6,36.9,30.26,NNE,33,0.0,0.0,77,0.00,,,0.00,Wunderground v.1.15,2013-11-09 04:09:00,
2013-11-08 23:24:00,43.1,37.0,30.26,NNE,33,0.0,0.0,79,0.00,,,0.00,Wunderground v.1.15,2013-11-09 04:24:00,
2013-11-08 23:39:00,43.0,36.6,30.26,NNE,33,0.0,0.0,78,0.00,,,0.00,Wunderground v.1.15,2013-11-09 04:39:00,
2013-11-08 23:49:00,42.4,36.0,30.26,NNE,33,0.0,0.0,78,0.00,,,0.00,Wunderground v.1.15,2013-11-09 04:49:00,